Time,TemperatureF,DewpointF,PressureIn,WindDirection,WindDirectionDegrees,WindSpeedMPH,WindSpeedGustMPH,Humidity,HourlyPrecipIn,Conditions,Clouds,dailyrainin,SoftwareType,DateUTC
2013-06-24 00:00:00,70.9,70.9,29.96,ENE,63,0.0,0.0,100,0.00,,,0.00,VWS V13.01,2013-06-24 05:00:00,
2013-06-24 00:01:00,69.6,69.6,30.05,SSW,201,4.2,5.8,100,0.00,,,0.00,VWS V13.01,2013-06-24 05:01:00,
2013-06-24 00:06:00,69.7,69.7,30.05,SSW,197,2.8,6.3,100,0.00,,,0.00,VWS V13.01,2013-06-24 05:06:00,
2013-06-24 00:11:00,69.8,69.8,30.05,SSW,207,5.6,6.0,100,0.00,,,0.00,VWS V13.01,2013-06-24 05:11:00,
2013-06-24 00:16:00,69.9,69.9,30.05,South,179,4.3,6.6,100,0.00,,,0.00,VWS V13.01,2013-06-24 05:16:00,
2013-06-24 00:21:00,70.2,70.1,30.05,South,180,6.9,8.5,100,0.00,,,0.00,VWS V13.01,2013-06-24 05:21:00,
2013-06-24 00:26:00,69.4,69.3,30.05,SSW,195,5.1,7.3,100,0.00,,,0.00,VWS V13.01,2013-06-24 05:26:00,
2013-06-24 00:31:00,69.5,69.4,30.05,SSW,210,5.3,6.6,100,0.00,,,0.00,VWS V13.01,2013-06-24 05:31:00,
2013-06-24 00:36:00,69.5,69.4,30.04,SSW,195,5.7,6.6,100,0.00,,,0.00,VWS V13.01,2013-06-24 05:36:00,
2013-06-24 00:41:00,69.5,69.4,30.04,South,180,6.3,6.5,100,0.00,,,0.00,VWS V13.01,2013-06-24 05:41:00,
2013-06-24 00:46:00,69.3,69.3,30.04,South,184,4.5,5.6,100,0.00,,,0.00,VWS V13.01,2013-06-24 05:46:00,
2013-06-24 00:52:00,69.3,69.3,30.03,South,184,3.9,4.1,100,0.00,,,0.00,VWS V13.01,2013-06-24 05:52:00,
2013-06-24 00:58:00,69.2,69.2,30.03,South,190,3.4,3.9,100,0.00,,,0.00,VWS V13.01,2013-06-24 05:58:00,
2013-06-24 01:03:00,68.8,68.8,30.03,South,191,3.0,4.3,100,0.00,,,0.00,VWS V13.01,2013-06-24 06:03:00,
2013-06-24 01:08:00,68.8,68.8,30.03,SSW,200,4.2,4.7,100,0.00,,,0.00,VWS V13.01,2013-06-24 06:08:00,
2013-06-24 01:13:00,68.8,68.8,30.03,SSW,193,2.4,3.2,100,0.00,,,0.00,VWS V13.01,2013-06-24 06:13:00,
2013-06-24 01:18:00,68.9,68.9,30.03,SSW,204,2.2,2.7,100,0.00,,,0.00,VWS V13.01,2013-06-24 06:18:00,
2013-06-24 01:23:00,68.8,68.8,30.03,SSW,207,0.0,0.0,100,0.00,,,0.00,VWS V13.01,2013-06-24 06:23:00,
2013-06-24 01:28:00,68.5,68.5,30.03,SSE,165,1.7,1.7,100,0.00,,,0.00,VWS V13.01,2013-06-24 06:28:00,
2013-06-24 01:33:00,68.4,68.4,30.03,South,181,4.0,4.7,100,0.00,,,0.00,VWS V13.01,2013-06-24 06:33:00,
2013-06-24 01:38:00,68.6,68.6,30.02,SSE,163,1.6,3.5,100,0.00,,,0.00,VWS V13.01,2013-06-24 06:38:00,
2013-06-24 01:43:00,68.5,68.5,30.02,SSE,152,2.4,3.6,100,0.00,,,0.00,VWS V13.01,2013-06-24 06:43:00,
2013-06-24 01:48:00,68.5,68.5,30.02,South,173,4.0,4.1,100,0.00,,,0.00,VWS V13.01,2013-06-24 06:48:00,
2013-06-24 01:54:00,68.5,68.5,30.02,SSE,158,4.0,5.0,100,0.00,,,0.00,VWS V13.01,2013-06-24 06:54:00,
2013-06-24 01:59:00,68.5,68.5,30.02,SSE,160,4.2,4.2,100,0.00,,,0.00,VWS V13.01,2013-06-24 06:59:00,
2013-06-24 02:04:00,68.5,68.5,30.02,South,170,5.3,6.3,100,0.00,,,0.00,VWS V13.01,2013-06-24 07:04:00,
2013-06-24 02:09:00,68.2,68.2,30.02,South,191,5.5,6.5,100,0.00,,,0.00,VWS V13.01,2013-06-24 07:09:00,
2013-06-24 02:14:00,68.2,68.2,30.02,South,180,4.9,6.0,100,0.00,,,0.00,VWS V13.01,2013-06-24 07:14:00,
2013-06-24 02:19:00,68.2,68.2,30.02,South,172,7.0,7.7,100,0.00,,,0.00,VWS V13.01,2013-06-24 07:19:00,
2013-06-24 02:25:00,68.1,68.1,30.02,South,179,8.0,9.7,100,0.00,,,0.00,VWS V13.01,2013-06-24 07:25:00,
2013-06-24 02:30:00,67.9,67.9,30.02,South,188,8.1,10.7,100,0.00,,,0.00,VWS V13.01,2013-06-24 07:30:00,
2013-06-24 02:35:00,68.2,68.2,30.02,South,179,8.0,8.9,100,0.00,,,0.00,VWS V13.01,2013-06-24 07:35:00,
2013-06-24 02:41:00,68.2,68.2,30.03,SSE,160,7.8,8.0,100,0.00,,,0.00,VWS V13.01,2013-06-24 07:41:00,
2013-06-24 02:46:00,68.4,68.4,30.03,SSW,207,5.9,6.5,100,0.00,,,0.00,VWS V13.01,2013-06-24 07:46:00,
2013-06-24 02:51:00,68.6,68.6,30.03,South,176,7.4,7.6,100,0.00,,,0.00,VWS V13.01,2013-06-24 07:51:00,
2013-06-24 02:56:00,68.4,68.4,30.03,SE,145,8.3,8.3,100,0.00,,,0.00,VWS V13.01,2013-06-24 07:56:00,
2013-06-24 03:01:00,69.0,69.0,30.03,SW,214,6.6,6.6,100,0.00,,,0.00,VWS V13.01,2013-06-24 08:01:00,
2013-06-24 03:06:00,68.6,68.6,30.03,SSW,207,5.3,8.6,100,0.00,,,0.00,VWS V13.01,2013-06-24 08:06:00,
2013-06-24 03:12:00,68.8,68.8,30.03,SSW,211,2.4,4.2,100,0.00,,,0.00,VWS V13.01,2013-06-24 08:12:00,
2013-06-24 03:17:00,68.8,68.8,30.04,South,191,4.4,5.3,100,0.00,,,0.00,VWS V13.01,2013-06-24 08:17:00,
2013-06-24 03:23:00,69.1,69.1,30.04,SSE,149,5.3,6.0,100,0.00,,,0.00,VWS V13.01,2013-06-24 08:23:00,
2013-06-24 03:28:00,69.5,69.5,30.03,East,83,0.9,1.7,100,0.00,,,0.01,VWS V13.01,2013-06-24 08:28:00,
2013-06-24 03:34:00,68.9,68.9,30.03,ENE,58,0.0,0.0,100,0.00,,,0.05,VWS V13.01,2013-06-24 08:34:00,
2013-06-24 03:39:00,68.6,68.6,30.03,East,89,1.7,2.5,100,0.00,,,0.07,VWS V13.01,2013-06-24 08:39:00,
2013-06-24 03:43:00,68.5,68.5,30.02,SE,142,1.7,2.9,100,0.00,,,0.09,VWS V13.01,2013-06-24 08:43:00,
2013-06-24 03:49:00,68.1,68.1,30.03,NE,37,5.4,7.3,100,0.00,,,0.09,VWS V13.01,2013-06-24 08:49:00,
2013-06-24 03:54:00,67.4,67.4,30.03,NE,51,11.6,11.9,100,0.00,,,0.09,VWS V13.01,2013-06-24 08:54:00,
2013-06-24 03:59:00,68.0,68.0,30.04,NE,52,5.8,10.7,100,0.00,,,0.09,VWS V13.01,2013-06-24 08:59:00,
2013-06-24 04:05:00,68.0,68.0,30.03,ENE,70,9.6,11.9,100,0.00,,,0.09,VWS V13.01,2013-06-24 09:05:00,
2013-06-24 04:10:00,67.6,67.6,30.03,NE,48,4.8,6.3,100,0.00,,,0.09,VWS V13.01,2013-06-24 09:10:00,
2013-06-24 04:15:00,67.3,67.3,30.03,ENE,62,3.7,9.4,100,0.00,,,0.09,VWS V13.01,2013-06-24 09:15:00,
2013-06-24 04:19:00,67.8,67.8,30.03,NE,51,10.3,11.5,100,0.00,,,0.09,VWS V13.01,2013-06-24 09:19:00,
2013-06-24 04:25:00,67.3,67.3,30.04,NE,52,7.6,7.8,100,0.00,,,0.09,VWS V13.01,2013-06-24 09:25:00,
2013-06-24 04:30:00,67.4,67.4,30.04,NE,42,4.0,7.0,100,0.00,,,0.09,VWS V13.01,2013-06-24 09:30:00,
2013-06-24 04:35:00,67.7,67.7,30.04,NE,51,2.8,3.5,100,0.00,,,0.09,VWS V13.01,2013-06-24 09:35:00,
2013-06-24 04:40:00,67.8,67.8,30.04,ENE,62,5.7,8.2,100,0.00,,,0.09,VWS V13.01,2013-06-24 09:40:00,
2013-06-24 04:45:00,67.7,67.7,30.04,NE,51,4.6,6.9,100,0.00,,,0.09,VWS V13.01,2013-06-24 09:45:00,
2013-06-24 04:51:00,67.9,67.9,30.04,ENE,76,3.2,4.5,100,0.00,,,0.09,VWS V13.01,2013-06-24 09:51:00,
2013-06-24 04:56:00,67.8,67.8,30.05,NE,39,5.2,7.4,100,0.00,,,0.09,VWS V13.01,2013-06-24 09:56:00,
2013-06-24 05:01:00,67.8,67.8,30.05,NE,52,7.5,7.9,100,0.00,,,0.09,VWS V13.01,2013-06-24 10:01:00,
2013-06-24 05:06:00,67.6,67.6,30.05,NNE,28,6.3,8.3,100,0.00,,,0.09,VWS V13.01,2013-06-24 10:06:00,
2013-06-24 05:11:00,67.8,67.8,30.06,NNE,27,5.7,7.8,100,0.00,,,0.09,VWS V13.01,2013-06-24 10:11:00,
2013-06-24 05:16:00,68.0,68.0,30.06,NE,34,3.0,4.9,100,0.00,,,0.09,VWS V13.01,2013-06-24 10:16:00,
2013-06-24 05:22:00,67.5,67.5,30.08,North,350,5.7,7.6,100,0.00,,,0.09,VWS V13.01,2013-06-24 10:22:00,
2013-06-24 05:27:00,68.0,68.0,30.09,NE,53,4.0,6.1,100,0.00,,,0.09,VWS V13.01,2013-06-24 10:27:00,
2013-06-24 05:33:00,68.2,68.2,30.09,NNE,25,2.0,5.9,100,0.00,,,0.09,VWS V13.01,2013-06-24 10:33:00,
2013-06-24 05:38:00,68.0,68.0,30.10,North,1,6.8,11.8,100,0.00,,,0.09,VWS V13.01,2013-06-24 10:38:00,
2013-06-24 05:43:00,68.2,68.2,30.10,North,359,7.1,11.2,100,0.00,,,0.09,VWS V13.01,2013-06-24 10:43:00,
2013-06-24 05:48:00,68.0,68.0,30.10,North,350,10.7,10.7,100,0.00,,,0.09,VWS V13.01,2013-06-24 10:48:00,
2013-06-24 05:53:00,68.1,68.1,30.10,NNE,25,5.0,7.3,100,0.00,,,0.09,VWS V13.01,2013-06-24 10:53:00,
2013-06-24 05:59:00,68.1,68.1,30.10,North,4,13.9,13.9,100,0.00,,,0.09,VWS V13.01,2013-06-24 10:59:00,
2013-06-24 06:04:00,68.0,68.0,30.10,NNE,14,12.0,12.1,100,0.00,,,0.09,VWS V13.01,2013-06-24 11:04:00,
2013-06-24 06:10:00,67.9,67.9,30.10,NE,55,8.9,11.2,100,0.00,,,0.09,VWS V13.01,2013-06-24 11:10:00,
2013-06-24 06:15:00,67.3,67.3,30.10,NNE,28,7.7,9.4,100,0.00,,,0.09,VWS V13.01,2013-06-24 11:15:00,
2013-06-24 06:20:00,67.3,67.3,30.09,North,10,8.5,8.5,100,0.00,,,0.09,VWS V13.01,2013-06-24 11:20:00,
2013-06-24 06:25:00,67.2,67.2,30.09,NNE,24,6.5,7.8,100,0.00,,,0.09,VWS V13.01,2013-06-24 11:25:00,
2013-06-24 06:30:00,66.9,66.9,30.09,ENE,58,6.3,8.5,100,0.00,,,0.09,VWS V13.01,2013-06-24 11:30:00,
2013-06-24 06:36:00,66.9,66.9,30.08,NE,35,5.3,6.2,100,0.00,,,0.09,VWS V13.01,2013-06-24 11:36:00,
2013-06-24 06:41:00,66.9,66.9,30.08,NE,45,6.0,6.0,100,0.00,,,0.09,VWS V13.01,2013-06-24 11:41:00,
2013-06-24 06:46:00,66.8,66.8,30.08,NE,49,4.7,4.7,100,0.00,,,0.09,VWS V13.01,2013-06-24 11:46:00,
2013-06-24 06:51:00,66.8,66.8,30.08,East,93,2.4,4.0,100,0.00,,,0.09,VWS V13.01,2013-06-24 11:51:00,
2013-06-24 06:56:00,66.8,66.8,30.08,ENE,62,5.3,5.3,100,0.00,,,0.09,VWS V13.01,2013-06-24 11:56:00,
2013-06-24 07:01:00,66.7,66.7,30.08,NE,45,3.3,5.8,100,0.00,,,0.09,VWS V13.01,2013-06-24 12:01:00,
2013-06-24 07:07:00,67.2,67.2,30.08,East,98,5.2,6.4,100,0.00,,,0.09,VWS V13.01,2013-06-24 12:07:00,
2013-06-24 07:12:00,67.4,67.4,30.08,NE,39,3.2,4.2,100,0.00,,,0.09,VWS V13.01,2013-06-24 12:12:00,
2013-06-24 07:17:00,67.9,67.9,30.08,South,184,5.3,7.8,100,0.00,,,0.09,VWS V13.01,2013-06-24 12:17:00,
2013-06-24 07:22:00,67.8,67.8,30.09,ENE,60,0.6,1.3,100,0.00,,,0.09,VWS V13.01,2013-06-24 12:22:00,
2013-06-24 07:28:00,68.0,68.0,30.09,SSE,149,5.3,5.7,100,0.00,,,0.09,VWS V13.01,2013-06-24 12:28:00,
2013-06-24 07:33:00,68.0,68.0,30.09,East,84,3.7,4.5,100,0.00,,,0.09,VWS V13.01,2013-06-24 12:33:00,
2013-06-24 07:38:00,68.0,68.0,30.09,SE,134,1.9,3.5,100,0.00,,,0.09,VWS V13.01,2013-06-24 12:38:00,
2013-06-24 07:43:00,68.2,68.2,30.10,East,84,0.0,1.5,100,0.00,,,0.09,VWS V13.01,2013-06-24 12:43:00,
2013-06-24 07:48:00,68.2,68.2,30.10,SE,128,2.7,5.0,100,0.00,,,0.09,VWS V13.01,2013-06-24 12:48:00,
2013-06-24 07:53:00,68.4,68.4,30.10,ENE,65,0.0,0.4,100,0.00,,,0.09,VWS V13.01,2013-06-24 12:53:00,
2013-06-24 07:58:00,68.8,68.8,30.11,ESE,115,1.9,3.6,100,0.00,,,0.09,VWS V13.01,2013-06-24 12:58:00,
2013-06-24 08:04:00,68.8,68.8,30.11,East,101,0.0,0.9,100,0.00,,,0.09,VWS V13.01,2013-06-24 13:04:00,
2013-06-24 08:09:00,69.4,69.4,30.11,South,170,4.2,5.2,100,0.00,,,0.09,VWS V13.01,2013-06-24 13:09:00,
2013-06-24 08:14:00,69.9,69.9,30.11,SE,142,4.0,5.3,100,0.00,,,0.09,VWS V13.01,2013-06-24 13:14:00,
2013-06-24 08:19:00,69.7,69.7,30.12,SSE,149,2.7,8.7,100,0.00,,,0.09,VWS V13.01,2013-06-24 13:19:00,
2013-06-24 08:24:00,70.6,70.4,30.12,SSE,162,4.0,7.5,99,0.00,,,0.09,VWS V13.01,2013-06-24 13:24:00,
2013-06-24 08:29:00,70.4,70.2,30.12,ESE,115,0.0,0.0,99,0.00,,,0.09,VWS V13.01,2013-06-24 13:29:00,
2013-06-24 08:34:00,71.0,70.8,30.13,NNW,333,6.0,6.6,99,0.00,,,0.09,VWS V13.01,2013-06-24 13:34:00,
2013-06-24 08:39:00,71.0,70.6,30.13,NE,55,5.3,10.1,98,0.00,,,0.09,VWS V13.01,2013-06-24 13:39:00,
2013-06-24 08:45:00,70.1,69.9,30.13,North,4,3.3,4.8,99,0.00,,,0.09,VWS V13.01,2013-06-24 13:45:00,
2013-06-24 08:50:00,69.9,69.9,30.12,NNE,15,2.2,4.2,100,0.00,,,0.09,VWS V13.01,2013-06-24 13:50:00,
2013-06-24 08:55:00,69.6,69.6,30.11,North,0,1.6,2.4,100,0.00,,,0.09,VWS V13.01,2013-06-24 13:55:00,
2013-06-24 09:00:00,69.3,69.3,30.12,North,7,2.3,2.6,100,0.00,,,0.09,VWS V13.01,2013-06-24 14:00:00,
2013-06-24 09:06:00,69.4,69.4,30.11,NE,44,2.9,4.0,100,0.00,,,0.09,VWS V13.01,2013-06-24 14:06:00,
2013-06-24 09:11:00,69.9,69.9,30.10,NNE,30,1.4,1.4,100,0.00,,,0.09,VWS V13.01,2013-06-24 14:11:00,
2013-06-24 09:16:00,70.1,70.1,30.11,NE,51,4.1,5.0,100,0.00,,,0.09,VWS V13.01,2013-06-24 14:16:00,
2013-06-24 09:21:00,70.3,70.3,30.11,ENE,59,2.7,3.4,100,0.00,,,0.09,VWS V13.01,2013-06-24 14:21:00,
2013-06-24 09:26:00,70.2,70.1,30.11,NE,51,2.8,4.3,100,0.00,,,0.09,VWS V13.01,2013-06-24 14:26:00,
2013-06-24 09:31:00,70.3,70.3,30.11,NE,34,3.5,3.5,100,0.00,,,0.09,VWS V13.01,2013-06-24 14:31:00,
2013-06-24 09:36:00,71.0,71.0,30.11,NE,41,3.0,4.7,100,0.00,,,0.09,VWS V13.01,2013-06-24 14:36:00,
2013-06-24 09:41:00,70.5,70.4,30.11,NNE,14,2.2,2.4,100,0.00,,,0.09,VWS V13.01,2013-06-24 14:41:00,
2013-06-24 09:46:00,71.0,70.9,30.11,NE,53,1.9,2.7,100,0.00,,,0.09,VWS V13.01,2013-06-24 14:46:00,
2013-06-24 09:52:00,71.2,71.0,30.12,East,79,3.2,3.6,99,0.00,,,0.09,VWS V13.01,2013-06-24 14:52:00,
2013-06-24 09:57:00,71.0,70.7,30.12,NNE,27,2.5,3.5,99,0.00,,,0.09,VWS V13.01,2013-06-24 14:57:00,
2013-06-24 10:02:00,71.4,70.9,30.12,NE,49,1.1,1.4,98,0.00,,,0.09,VWS V13.01,2013-06-24 15:02:00,
2013-06-24 10:07:00,71.7,71.3,30.11,NE,48,2.1,2.6,99,0.00,,,0.09,VWS V13.01,2013-06-24 15:07:00,
2013-06-24 10:12:00,71.4,71.0,30.11,NNE,31,0.0,1.3,98,0.00,,,0.09,VWS V13.01,2013-06-24 15:12:00,
2013-06-24 10:17:00,71.7,71.3,30.11,ENE,58,2.5,2.7,99,0.00,,,0.09,VWS V13.01,2013-06-24 15:17:00,
2013-06-24 10:23:00,71.8,71.4,30.11,NNE,31,3.0,5.1,99,0.00,,,0.09,VWS V13.01,2013-06-24 15:23:00,
2013-06-24 10:28:00,72.4,72.1,30.11,East,97,0.0,0.0,99,0.00,,,0.09,VWS V13.01,2013-06-24 15:28:00,
2013-06-24 10:33:00,72.6,72.0,30.10,SE,128,5.5,6.7,98,0.00,,,0.09,VWS V13.01,2013-06-24 15:33:00,
2013-06-24 10:38:00,73.1,72.2,30.10,ESE,120,5.1,5.7,97,0.00,,,0.09,VWS V13.01,2013-06-24 15:38:00,
2013-06-24 10:43:00,73.7,72.9,30.10,SE,129,4.3,5.7,97,0.00,,,0.09,VWS V13.01,2013-06-24 15:43:00,
2013-06-24 10:48:00,73.8,72.6,30.10,SSE,165,4.8,5.8,96,0.00,,,0.09,VWS V13.01,2013-06-24 15:48:00,
2013-06-24 10:53:00,74.8,73.7,30.10,SE,127,6.8,7.2,96,0.00,,,0.09,VWS V13.01,2013-06-24 15:53:00,
2013-06-24 10:58:00,75.4,73.5,30.09,SE,132,5.5,8.2,94,0.00,,,0.09,VWS V13.01,2013-06-24 15:58:00,
2013-06-24 11:04:00,75.9,73.3,30.08,SE,138,4.3,4.3,92,0.00,,,0.09,VWS V13.01,2013-06-24 16:04:00,
2013-06-24 11:09:00,76.7,73.7,30.09,SSE,149,7.6,9.0,90,0.00,,,0.09,VWS V13.01,2013-06-24 16:09:00,
2013-06-24 11:14:00,77.3,73.4,30.09,SE,143,5.8,8.0,88,0.00,,,0.09,VWS V13.01,2013-06-24 16:14:00,
2013-06-24 11:20:00,77.9,73.7,30.09,SE,141,5.0,5.8,87,0.00,,,0.09,VWS V13.01,2013-06-24 16:20:00,
2013-06-24 11:25:00,78.0,73.7,30.08,South,179,5.8,7.9,87,0.00,,,0.09,VWS V13.01,2013-06-24 16:25:00,
2013-06-24 11:30:00,79.0,73.3,30.08,SE,142,6.4,8.4,83,0.00,,,0.09,VWS V13.01,2013-06-24 16:30:00,
2013-06-24 11:35:00,79.1,72.5,30.08,SSE,150,5.1,7.1,80,0.00,,,0.09,VWS V13.01,2013-06-24 16:35:00,
2013-06-24 11:40:00,79.4,72.7,30.07,SSE,148,7.3,8.0,80,0.00,,,0.09,VWS V13.01,2013-06-24 16:40:00,
2013-06-24 11:45:00,79.7,73.3,30.06,SE,141,10.2,13.0,81,0.00,,,0.09,VWS V13.01,2013-06-24 16:45:00,
2013-06-24 11:50:00,79.3,72.6,30.06,SSE,158,5.9,11.2,80,0.00,,,0.09,VWS V13.01,2013-06-24 16:50:00,
2013-06-24 11:55:00,80.0,73.6,30.06,SSE,163,4.0,5.5,81,0.00,,,0.09,VWS V13.01,2013-06-24 16:55:00,
2013-06-24 12:01:00,80.0,73.1,30.06,SSE,165,5.5,5.8,80,0.00,,,0.09,VWS V13.01,2013-06-24 17:01:00,
2013-06-24 12:06:00,80.4,73.8,30.05,South,169,9.4,11.4,80,0.00,,,0.09,VWS V13.01,2013-06-24 17:06:00,
2013-06-24 12:11:00,80.3,72.8,30.05,SE,138,9.2,9.2,78,0.00,,,0.09,VWS V13.01,2013-06-24 17:11:00,
2013-06-24 12:17:00,81.1,72.9,30.05,SSE,165,8.5,9.8,76,0.00,,,0.09,VWS V13.01,2013-06-24 17:17:00,
2013-06-24 12:22:00,81.5,72.9,30.05,SSE,159,11.0,12.2,75,0.00,,,0.09,VWS V13.01,2013-06-24 17:22:00,
2013-06-24 12:27:00,81.9,72.9,30.04,South,169,11.1,12.1,74,0.00,,,0.09,VWS V13.01,2013-06-24 17:27:00,
2013-06-24 12:32:00,82.3,73.7,30.04,SSW,201,6.8,9.9,75,0.00,,,0.09,VWS V13.01,2013-06-24 17:32:00,
2013-06-24 12:38:00,82.4,72.3,30.04,SE,125,6.1,9.2,72,0.00,,,0.09,VWS V13.01,2013-06-24 17:38:00,
2013-06-24 12:43:00,83.0,73.7,30.03,ESE,120,7.0,8.9,74,0.00,,,0.09,VWS V13.01,2013-06-24 17:43:00,
2013-06-24 12:48:00,83.4,72.8,30.03,South,180,7.2,12.2,71,0.00,,,0.09,VWS V13.01,2013-06-24 17:48:00,
2013-06-24 12:53:00,83.5,73.1,30.03,SSE,158,10.1,10.9,71,0.00,,,0.09,VWS V13.01,2013-06-24 17:53:00,
2013-06-24 12:59:00,83.5,72.7,30.03,SSE,166,12.7,12.9,70,0.00,,,0.09,VWS V13.01,2013-06-24 17:59:00,
2013-06-24 13:04:00,83.8,73.7,30.03,South,177,8.6,11.2,72,0.00,,,0.09,VWS V13.01,2013-06-24 18:04:00,
2013-06-24 13:09:00,83.8,72.7,30.02,South,184,10.3,11.4,69,0.00,,,0.09,VWS V13.01,2013-06-24 18:09:00,
2013-06-24 13:14:00,83.4,72.4,30.02,South,179,9.6,14.0,70,0.00,,,0.09,VWS V13.01,2013-06-24 18:14:00,
2013-06-24 13:20:00,83.8,73.4,30.02,South,173,10.1,14.5,71,0.00,,,0.09,VWS V13.01,2013-06-24 18:20:00,
2013-06-24 13:25:00,83.8,73.0,30.02,South,177,13.2,14.5,70,0.00,,,0.09,VWS V13.01,2013-06-24 18:25:00,
2013-06-24 13:30:00,84.0,72.9,30.02,SSE,163,9.4,13.0,69,0.00,,,0.09,VWS V13.01,2013-06-24 18:30:00,
2013-06-24 13:35:00,83.8,72.6,30.02,SSE,165,11.7,16.0,69,0.00,,,0.09,VWS V13.01,2013-06-24 18:35:00,
2013-06-24 13:40:00,84.5,73.3,30.02,SSE,167,16.3,17.1,69,0.00,,,0.09,VWS V13.01,2013-06-24 18:40:00,
2013-06-24 13:45:00,84.5,73.1,30.02,SE,125,8.4,10.8,69,0.00,,,0.09,VWS V13.01,2013-06-24 18:45:00,
2013-06-24 13:51:00,84.4,73.6,30.02,SSW,193,9.7,14.0,70,0.00,,,0.09,VWS V13.01,2013-06-24 18:51:00,
2013-06-24 13:56:00,84.9,73.2,30.02,South,173,6.1,7.8,68,0.00,,,0.09,VWS V13.01,2013-06-24 18:56:00,
2013-06-24 14:01:00,85.0,73.3,30.02,SSW,202,7.0,8.6,68,0.00,,,0.09,VWS V13.01,2013-06-24 19:01:00,
2013-06-24 14:06:00,85.2,73.4,30.02,SSW,197,8.4,9.3,68,0.00,,,0.09,VWS V13.01,2013-06-24 19:06:00,
2013-06-24 14:11:00,85.3,73.7,30.02,East,96,2.5,8.6,68,0.00,,,0.09,VWS V13.01,2013-06-24 19:11:00,
2013-06-24 14:16:00,85.0,73.7,30.02,SSE,158,8.9,11.5,69,0.00,,,0.09,VWS V13.01,2013-06-24 19:16:00,
2013-06-24 14:22:00,85.4,73.9,30.02,South,184,10.4,11.1,69,0.00,,,0.09,VWS V13.01,2013-06-24 19:22:00,
2013-06-24 14:27:00,85.6,73.2,30.01,SSE,162,7.7,8.3,67,0.00,,,0.09,VWS V13.01,2013-06-24 19:27:00,
2013-06-24 14:32:00,85.9,74.0,30.01,SSE,156,9.3,11.2,68,0.00,,,0.09,VWS V13.01,2013-06-24 19:32:00,
2013-06-24 14:37:00,86.2,73.1,30.01,SSE,158,8.4,9.6,65,0.00,,,0.09,VWS V13.01,2013-06-24 19:37:00,
2013-06-24 14:42:00,86.2,73.4,30.01,South,177,11.5,13.5,66,0.00,,,0.09,VWS V13.01,2013-06-24 19:42:00,
2013-06-24 14:47:00,85.9,73.0,30.00,South,181,12.4,13.8,65,0.00,,,0.09,VWS V13.01,2013-06-24 19:47:00,
2013-06-24 14:53:00,86.3,73.2,30.00,SW,221,3.5,6.8,65,0.00,,,0.09,VWS V13.01,2013-06-24 19:53:00,
2013-06-24 14:58:00,86.1,73.0,30.00,South,186,10.8,12.4,65,0.00,,,0.09,VWS V13.01,2013-06-24 19:58:00,
2013-06-24 15:03:00,86.7,72.1,30.00,South,186,7.6,12.1,62,0.00,,,0.09,VWS V13.01,2013-06-24 20:03:00,
2013-06-24 15:08:00,86.5,72.6,30.00,South,191,9.1,13.9,63,0.00,,,0.09,VWS V13.01,2013-06-24 20:08:00,
2013-06-24 15:13:00,85.8,72.8,30.00,SSW,195,7.8,7.8,65,0.00,,,0.09,VWS V13.01,2013-06-24 20:13:00,
2013-06-24 15:18:00,85.6,73.6,30.00,South,183,6.4,8.0,67,0.00,,,0.09,VWS V13.01,2013-06-24 20:18:00,
2013-06-24 15:23:00,86.0,73.7,30.00,South,191,9.9,9.9,67,0.00,,,0.09,VWS V13.01,2013-06-24 20:23:00,
2013-06-24 15:29:00,86.2,73.3,30.00,SSW,201,6.8,11.4,66,0.00,,,0.09,VWS V13.01,2013-06-24 20:29:00,
2013-06-24 15:34:00,86.5,73.8,30.00,South,180,11.4,15.1,66,0.00,,,0.09,VWS V13.01,2013-06-24 20:34:00,
2013-06-24 15:39:00,86.6,73.5,30.01,SSW,195,8.1,12.9,65,0.00,,,0.09,VWS V13.01,2013-06-24 20:39:00,
2013-06-24 15:44:00,87.0,74.4,30.00,South,173,6.3,9.6,66,0.00,,,0.09,VWS V13.01,2013-06-24 20:44:00,
2013-06-24 15:49:00,87.0,73.7,30.00,SSW,198,15.2,15.2,65,0.00,,,0.09,VWS V13.01,2013-06-24 20:49:00,
2013-06-24 15:54:00,87.1,73.4,30.01,SSW,200,7.9,9.3,64,0.00,,,0.09,VWS V13.01,2013-06-24 20:54:00,
2013-06-24 15:59:00,87.2,72.9,30.00,South,181,4.0,4.8,63,0.00,,,0.09,VWS V13.01,2013-06-24 20:59:00,
2013-06-24 16:05:00,86.7,73.1,30.01,WSW,239,6.6,8.4,64,0.00,,,0.09,VWS V13.01,2013-06-24 21:05:00,
2013-06-24 16:10:00,86.5,73.6,30.01,SSW,211,7.6,7.6,66,0.00,,,0.09,VWS V13.01,2013-06-24 21:10:00,
2013-06-24 16:15:00,86.2,74.3,30.01,SW,233,4.2,6.3,68,0.00,,,0.09,VWS V13.01,2013-06-24 21:15:00,
2013-06-24 16:20:00,85.6,74.7,30.00,SSW,211,3.3,6.7,70,0.00,,,0.09,VWS V13.01,2013-06-24 21:20:00,
2013-06-24 16:25:00,85.5,74.7,30.01,SSW,200,6.8,7.9,70,0.00,,,0.09,VWS V13.01,2013-06-24 21:25:00,
2013-06-24 16:30:00,85.3,75.1,30.02,SW,221,4.5,6.0,72,0.00,,,0.09,VWS V13.01,2013-06-24 21:30:00,
2013-06-24 16:35:00,85.5,75.4,30.02,WSW,242,8.3,9.6,72,0.00,,,0.09,VWS V13.01,2013-06-24 21:35:00,
2013-06-24 16:40:00,85.1,75.7,30.02,SW,235,7.8,11.1,74,0.00,,,0.09,VWS V13.01,2013-06-24 21:40:00,
2013-06-24 16:45:00,84.8,76.4,30.03,WSW,246,6.7,7.1,76,0.00,,,0.09,VWS V13.01,2013-06-24 21:45:00,
2013-06-24 16:50:00,84.8,77.6,30.03,SW,233,4.7,6.0,79,0.00,,,0.09,VWS V13.01,2013-06-24 21:50:00,
2013-06-24 16:55:00,83.9,77.7,30.02,WSW,250,4.9,6.5,82,0.00,,,0.09,VWS V13.01,2013-06-24 21:55:00,
2013-06-24 17:00:00,83.4,78.1,30.03,West,263,5.7,6.8,84,0.00,,,0.09,VWS V13.01,2013-06-24 22:00:00,
2013-06-24 17:05:00,81.4,66.2,30.05,WNW,287,25.7,37.9,60,0.00,,,0.09,VWS V13.01,2013-06-24 22:05:00,
2013-06-24 17:10:00,78.0,68.4,30.06,WNW,300,24.0,30.1,72,0.00,,,0.10,VWS V13.01,2013-06-24 22:10:00,
2013-06-24 17:16:00,74.7,68.7,30.05,WNW,300,17.2,23.4,82,0.00,,,0.10,VWS V13.01,2013-06-24 22:16:00,
2013-06-24 17:21:00,72.6,68.4,30.05,NW,322,19.5,23.1,87,0.00,,,0.10,VWS V13.01,2013-06-24 22:21:00,
2013-06-24 17:27:00,71.6,68.3,30.04,WNW,290,17.8,17.8,89,0.00,,,0.10,VWS V13.01,2013-06-24 22:27:00,
2013-06-24 17:32:00,70.8,68.4,30.03,NW,305,12.0,16.3,92,0.00,,,0.11,VWS V13.01,2013-06-24 22:32:00,
2013-06-24 17:38:00,70.5,69.2,30.06,West,274,15.1,20.4,96,0.00,,,0.13,VWS V13.01,2013-06-24 22:38:00,
2013-06-24 17:44:00,70.2,69.3,30.04,West,260,10.1,11.3,97,0.00,,,0.15,VWS V13.01,2013-06-24 22:44:00,
2013-06-24 17:50:00,69.6,69.0,30.02,NNW,336,7.7,9.6,98,0.00,,,0.17,VWS V13.01,2013-06-24 22:50:00,
2013-06-24 17:55:00,69.4,68.9,30.03,WNW,297,7.7,12.4,98,0.00,,,0.17,VWS V13.01,2013-06-24 22:55:00,
2013-06-24 18:00:00,69.4,69.1,30.01,NW,308,4.5,7.3,99,0.00,,,0.17,VWS V13.01,2013-06-24 23:00:00,
2013-06-24 18:05:00,69.3,69.0,30.00,NNW,347,5.0,6.6,99,0.00,,,0.17,VWS V13.01,2013-06-24 23:05:00,
2013-06-24 18:11:00,69.2,69.0,30.00,North,10,2.8,3.2,99,0.00,,,0.17,VWS V13.01,2013-06-24 23:11:00,
2013-06-24 18:16:00,68.9,68.6,30.00,ESE,114,0.0,0.8,99,0.00,,,0.17,VWS V13.01,2013-06-24 23:16:00,
2013-06-24 18:21:00,68.9,68.7,30.00,ESE,114,0.0,0.0,99,0.00,,,0.17,VWS V13.01,2013-06-24 23:21:00,
2013-06-24 18:26:00,68.9,68.8,30.00,ESE,114,0.0,0.0,100,0.00,,,0.17,VWS V13.01,2013-06-24 23:26:00,
2013-06-24 18:31:00,69.1,69.1,29.99,ESE,114,0.0,0.0,100,0.00,,,0.17,VWS V13.01,2013-06-24 23:31:00,
2013-06-24 18:36:00,69.1,69.1,29.99,ESE,114,0.0,0.0,100,0.00,,,0.17,VWS V13.01,2013-06-24 23:36:00,
2013-06-24 18:41:00,68.9,68.9,29.98,East,96,1.9,2.4,100,0.00,,,0.17,VWS V13.01,2013-06-24 23:41:00,
2013-06-24 18:47:00,68.8,68.8,29.98,ESE,120,3.2,4.3,100,0.00,,,0.17,VWS V13.01,2013-06-24 23:47:00,
2013-06-24 18:52:00,68.5,68.5,29.97,ESE,108,3.7,5.5,100,0.00,,,0.17,VWS V13.01,2013-06-24 23:52:00,
2013-06-24 18:57:00,68.8,68.8,29.96,ESE,118,3.0,3.2,100,0.00,,,0.17,VWS V13.01,2013-06-24 23:57:00,
2013-06-24 19:02:00,68.9,68.9,29.96,ESE,120,2.6,5.0,100,0.00,,,0.17,VWS V13.01,2013-06-25 00:02:00,
2013-06-24 19:07:00,68.8,68.8,29.96,East,98,4.6,5.7,100,0.00,,,0.17,VWS V13.01,2013-06-25 00:07:00,
2013-06-24 19:12:00,68.6,68.6,29.95,ESE,107,6.2,7.6,100,0.00,,,0.17,VWS V13.01,2013-06-25 00:12:00,
2013-06-24 19:17:00,68.7,68.7,29.94,South,188,8.5,11.1,100,0.00,,,0.17,VWS V13.01,2013-06-25 00:17:00,
2013-06-24 19:23:00,68.7,68.7,29.92,SE,125,9.1,14.1,100,0.00,,,0.17,VWS V13.01,2013-06-25 00:23:00,
2013-06-24 19:28:00,68.4,68.4,29.92,SE,139,7.6,11.6,100,0.00,,,0.17,VWS V13.01,2013-06-25 00:28:00,
2013-06-24 19:33:00,69.1,69.1,29.92,ESE,108,8.0,12.9,100,0.00,,,0.17,VWS V13.01,2013-06-25 00:33:00,
2013-06-24 19:38:00,68.9,68.9,29.92,SSE,162,6.3,11.4,100,0.00,,,0.17,VWS V13.01,2013-06-25 00:38:00,
2013-06-24 19:43:00,69.1,69.1,29.92,SE,146,6.9,11.3,100,0.00,,,0.17,VWS V13.01,2013-06-25 00:43:00,
2013-06-24 19:48:00,69.1,69.1,29.92,SE,138,6.0,11.4,100,0.00,,,0.17,VWS V13.01,2013-06-25 00:48:00,
2013-06-24 19:53:00,69.1,69.1,29.93,SE,124,2.6,5.0,100,0.00,,,0.17,VWS V13.01,2013-06-25 00:53:00,
2013-06-24 19:58:00,69.3,69.3,29.94,ESE,118,0.0,0.6,100,0.00,,,0.17,VWS V13.01,2013-06-25 00:58:00,
2013-06-24 20:03:00,69.2,69.2,29.94,ESE,118,0.0,0.0,100,0.00,,,0.17,VWS V13.01,2013-06-25 01:03:00,
2013-06-24 20:09:00,69.4,69.4,29.95,ESE,118,0.0,0.0,100,0.00,,,0.17,VWS V13.01,2013-06-25 01:09:00,
2013-06-24 20:14:00,69.6,69.6,29.95,ESE,118,0.0,0.0,100,0.00,,,0.17,VWS V13.01,2013-06-25 01:14:00,
2013-06-24 20:19:00,69.7,69.7,29.95,ESE,118,0.0,0.0,100,0.00,,,0.17,VWS V13.01,2013-06-25 01:19:00,
2013-06-24 20:24:00,69.2,69.2,29.95,East,90,0.8,2.2,100,0.00,,,0.17,VWS V13.01,2013-06-25 01:24:00,
2013-06-24 20:29:00,69.8,69.8,29.95,East,90,0.0,0.0,100,0.00,,,0.17,VWS V13.01,2013-06-25 01:29:00,
2013-06-24 20:34:00,69.5,69.5,29.95,ESE,118,1.6,1.6,100,0.00,,,0.17,VWS V13.01,2013-06-25 01:34:00,
2013-06-24 20:39:00,69.2,69.2,29.95,East,87,0.0,0.0,100,0.00,,,0.17,VWS V13.01,2013-06-25 01:39:00,
2013-06-24 20:44:00,69.5,69.5,29.95,East,87,0.0,0.0,100,0.00,,,0.17,VWS V13.01,2013-06-25 01:44:00,
2013-06-24 20:49:00,69.7,69.7,29.94,ESE,104,1.5,2.1,100,0.00,,,0.17,VWS V13.01,2013-06-25 01:49:00,
2013-06-24 20:55:00,69.6,69.6,29.94,East,100,0.0,0.9,100,0.00,,,0.17,VWS V13.01,2013-06-25 01:55:00,
2013-06-24 21:00:00,69.3,69.3,29.94,ESE,112,0.0,0.5,100,0.00,,,0.17,VWS V13.01,2013-06-25 02:00:00,
2013-06-24 21:05:00,69.4,69.4,29.94,ENE,66,1.6,2.1,100,0.00,,,0.17,VWS V13.01,2013-06-25 02:05:00,
2013-06-24 21:10:00,69.3,69.3,29.94,NE,46,2.1,2.9,100,0.00,,,0.17,VWS V13.01,2013-06-25 02:10:00,
2013-06-24 21:15:00,69.3,69.3,29.94,ENE,69,2.9,3.7,100,0.00,,,0.17,VWS V13.01,2013-06-25 02:15:00,
2013-06-24 21:21:00,69.3,69.3,29.94,East,100,2.1,3.9,100,0.00,,,0.17,VWS V13.01,2013-06-25 02:21:00,
2013-06-24 21:25:00,69.2,69.2,29.93,ESE,121,1.9,2.8,100,0.00,,,0.17,VWS V13.01,2013-06-25 02:25:00,
2013-06-24 21:31:00,69.0,69.0,29.94,ENE,66,0.0,0.0,100,0.00,,,0.17,VWS V13.01,2013-06-25 02:31:00,
2013-06-24 21:36:00,69.1,69.1,29.94,NE,53,0.0,0.0,100,0.00,,,0.17,VWS V13.01,2013-06-25 02:36:00,
2013-06-24 21:41:00,69.5,69.5,29.95,East,100,2.0,2.2,100,0.00,,,0.17,VWS V13.01,2013-06-25 02:41:00,
2013-06-24 21:48:00,69.1,69.1,29.95,ESE,108,0.0,0.3,100,0.00,,,0.17,VWS V13.01,2013-06-25 02:48:00,
2013-06-24 21:53:00,69.4,69.4,29.95,East,84,1.4,2.0,100,0.00,,,0.17,VWS V13.01,2013-06-25 02:53:00,
2013-06-24 21:58:00,69.6,69.6,29.95,ESE,103,0.7,1.1,100,0.00,,,0.17,VWS V13.01,2013-06-25 02:58:00,
2013-06-24 22:03:00,69.7,69.7,29.96,ESE,114,2.1,2.5,100,0.00,,,0.17,VWS V13.01,2013-06-25 03:03:00,
2013-06-24 22:08:00,69.5,69.5,29.96,ESE,112,3.5,3.7,100,0.00,,,0.17,VWS V13.01,2013-06-25 03:08:00,
2013-06-24 22:14:00,69.8,69.8,29.96,ESE,111,1.5,3.6,100,0.00,,,0.17,VWS V13.01,2013-06-25 03:14:00,
2013-06-24 22:19:00,69.9,69.9,29.95,ENE,63,3.0,3.0,100,0.00,,,0.17,VWS V13.01,2013-06-25 03:19:00,
2013-06-24 22:25:00,69.8,69.8,29.96,ESE,107,1.8,2.3,100,0.00,,,0.17,VWS V13.01,2013-06-25 03:25:00,
2013-06-24 22:30:00,70.4,70.4,29.96,SE,128,1.9,3.0,100,0.00,,,0.17,VWS V13.01,2013-06-25 03:30:00,
2013-06-24 22:35:00,69.7,69.7,29.96,SE,142,4.3,4.3,100,0.00,,,0.17,VWS V13.01,2013-06-25 03:35:00,
2013-06-24 22:41:00,70.1,70.1,29.96,ESE,111,0.0,0.4,100,0.00,,,0.17,VWS V13.01,2013-06-25 03:41:00,
2013-06-24 22:47:00,70.2,70.2,29.97,East,84,1.9,4.0,100,0.00,,,0.17,VWS V13.01,2013-06-25 03:47:00,
2013-06-24 22:52:00,70.2,70.2,29.96,ESE,110,2.5,3.5,100,0.00,,,0.17,VWS V13.01,2013-06-25 03:52:00,
2013-06-24 22:57:00,70.9,70.9,29.97,ESE,117,1.4,2.1,100,0.00,,,0.17,VWS V13.01,2013-06-25 03:57:00,
2013-06-24 23:01:00,70.8,70.8,29.97,East,96,1.7,1.9,100,0.00,,,0.17,VWS V13.01,2013-06-25 04:01:00,
2013-06-24 23:02:00,70.9,70.9,29.97,East,90,1.7,2.2,100,0.00,,,0.17,VWS V13.01,2013-06-25 04:02:00,
2013-06-24 23:07:00,70.8,70.8,29.96,East,93,1.5,2.2,100,0.00,,,0.17,VWS V13.01,2013-06-25 04:07:00,
2013-06-24 23:12:00,71.1,71.1,29.97,East,96,2.1,2.9,100,0.00,,,0.17,VWS V13.01,2013-06-25 04:12:00,
2013-06-24 23:17:00,70.8,70.8,29.97,East,97,2.3,2.4,100,0.00,,,0.17,VWS V13.01,2013-06-25 04:17:00,
2013-06-24 23:22:00,70.9,70.9,29.97,SE,127,1.1,1.5,100,0.00,,,0.17,VWS V13.01,2013-06-25 04:22:00,
2013-06-24 23:27:00,70.8,70.8,29.96,ESE,110,2.7,2.7,100,0.00,,,0.17,VWS V13.01,2013-06-25 04:27:00,
2013-06-24 23:32:00,71.0,71.0,29.97,East,101,1.0,2.7,100,0.00,,,0.17,VWS V13.01,2013-06-25 04:32:00,
2013-06-24 23:37:00,71.2,71.2,29.97,ESE,108,1.2,1.6,100,0.00,,,0.17,VWS V13.01,2013-06-25 04:37:00,
2013-06-24 23:42:00,70.9,70.9,29.97,ENE,63,0.0,0.0,100,0.00,,,0.17,VWS V13.01,2013-06-25 04:42:00,
2013-06-24 23:47:00,70.7,70.7,29.97,ENE,63,0.0,0.0,100,0.00,,,0.17,VWS V13.01,2013-06-25 04:47:00,
2013-06-24 23:52:00,70.9,70.9,29.97,ENE,63,0.0,0.0,100,0.00,,,0.17,VWS V13.01,2013-06-25 04:52:00,
2013-06-24 23:57:00,70.8,70.8,29.96,ENE,63,0.0,0.0,100,0.00,,,0.17,VWS V13.01,2013-06-25 04:57:00,